Location: Invercargill
(46.4000°S, 168.3500°E)
Time: 14:14:33
(UTC+13:00)

Cosmos 841 Rocket - Pass Details

Date: 24 January 2019
Orbit: 748 x 771 km, 74.0° (Epoch: 18 February)

Event Time Altitude Azimuth Distance (km) Brightness Sun altitude
Rises 22:51:53 0° 205° (SSW) 3,287 8.3 -12.0°
Reaches altitude 10° 22:54:18 10° 207° (SSW) 2,353 7.3 -12.3°
Maximum altitude 22:59:36 66° 288° (WNW) 853 3.8 -12.9°
Enters shadow 23:04:13 13° 8° (N) 2,085 5.3 -13.5°
